Theta_e
324 323 322 323 325 322 320 322 325 325 326 325 324 322 321 318 319 319 319 318 316 316 318 320 318 318 315 308 308 308 308 305 303 302 301 300 300 300 299 299 299 299 300 306
325 324 324 326 325 324 322 322 323 323 324 323 322 321 321 321 320 317 317 319 320 320 318 318 318 313 308 308 309 307 303 303 301 301 300 300 300 300 299 299 300 300 301 303
326 325 326 327 326 326 325 325 325 327 325 324 323 322 322 321 319 319 319 319 317 317 316 314 311 308 308 308 304 303 302 301 301 301 301 301 300 299 299 299 300 300 302 305
326 324 328 326 323 323 324 324 323 324 324 323 322 321 321 320 319 319 319 318 317 315 313 310 307 308 307 304 303 302 301 301 302 302 301 300 299 299 300 301 301 302 304 304
325 326 325 325 320 322 323 324 322 323 322 321 321 321 321 319 318 318 317 316 315 314 311 308 308 306 303 303 301 301 301 301 301 301 300 299 298 301 301 301 301 302 303 303
315 322 328 325 317 319 319 324 321 319 320 320 319 320 320 317 315 314 313 311 311 311 309 307 303 302 302 301 300 299 299 299 300 299 298 299 301 301 301 301 302 302 302 301
324 325 322 320 313 316 323 323 316 317 319 318 317 318 315 313 312 310 309 309 308 307 305 302 302 301 300 299 299 299 300 299 299 298 298 300 301 301 299 301 301 301 302 302
323 325 326 316 313 319 318 312 311 312 314 314 314 314 313 311 309 308 307 305 304 302 302 300 299 299 299 299 299 300 299 299 299 298 300 302 301 300 300 299 300 299 301 301
322 323 317 314 317 314 313 310 308 309 309 310 310 310 309 308 307 304 303 302 301 300 299 299 299 299 299 299 300 299 299 299 299 299 301 301 300 300 299 298 298 299 299 299
318 318 315 312 313 310 309 309 309 310 311 309 308 308 307 306 303 302 301 300 299 299 299 299 299 299 300 300 300 300 299 299 298 300 300 299 299 300 298 298 297 297 298 298
314 312 311 312 312 311 309 311 313 313 313 312 307 306 305 303 301 299 299 299 299 299 299 300 300 300 300 300 299 298 298 297 297 299 299 298 299 299 298 297 296 296 297 297
316 313 313 312 311 310 310 311 310 311 310 305 304 304 303 300 299 299 299 299 299 300 300 300 300 299 299 298 297 296 296 297 297 298 298 299 299 299 297 296 296 296 297 297
311 311 312 312 311 308 307 306 309 310 307 303 300 300 299 299 298 299 299 300 300 299 299 299 298 297 296 296 295 294 295 296 296 297 298 299 299 299 297 296 295 295 296 296
308 309 309 309 308 307 307 307 305 302 300 299 299 299 299 300 300 300 299 299 299 298 297 296 295 294 294 293 293 294 294 294 296 296 298 298 298 298 297 297 296 295 295 295
304 304 307 307 304 305 304 302 300 300 300 300 300 300 300 299 299 299 298 297 296 295 294 293 292 293 293 292 292 293 294 294 295 296 297 297 298 297 298 297 296 295 295 294
303 303 303 303 302 301 300 300 299 299 300 300 300 300 299 298 297 296 294 294 293 292 291 291 291 292 291 291 291 291 292 293 295 296 296 296 296 296 297 296 296 295 295 294
301 300 301 301 301 300 300 300 300 300 299 299 298 297 295 294 294 293 292 291 291 290 290 291 290 291 290 290 290 290 290 293 293 294 295 295 296 295 295 295 294 294 294 294
301 301 301 301 299 299 300 299 298 298 297 296 295 294 293 292 291 291 291 290 290 290 289 290 289 289 289 289 289 290 290 291 292 293 293 294 294 294 294 294 294 293 293 292
299 300 300 299 299 299 298 298 298 297 295 294 293 292 291 291 290 289 289 288 287 287 288 289 288 288 288 288 288 288 289 289 291 292 292 293 293 293 293 293 292 291 291 291
300 300 299 299 299 298 297 296 294 293 292 292 292 291 288 288 287 287 287 287 287 286 287 288 288 287 287 287 288 288 288 289 290 291 292 292 292 292 292 291 290 290 290 290
298 298 297 296 295 294 293 293 293 292 292 290 289 288 288 288 288 288 288 288 287 287 287 286 286 287 287 286 287 287 287 288 289 290 290 290 291 291 290 290 289 289 289 289
296 294 293 293 293 293 292 292 290 289 289 289 289 289 288 288 288 288 288 288 288 287 287 286 287 286 286 286 286 286 287 288 288 288 289 289 289 289 289 289 288 288 287 287
293 293 292 292 291 290 289 289 288 287 287 287 287 287 287 286 286 286 287 287 287 286 286 286 286 287 286 286 287 287 287 287 287 288 288 288 288 288 288 288 287 286 286 286
291 290 290 290 289 289 288 287 287 286 286 285 285 284 284 284 284 284 284 284 284 284 284 284 284 286 286 286 286 286 286 287 287 287 287 287 287 287 287 287 286 286 286 286
290 290 289 288 288 286 286 285 284 284 283 283 282 282 281 280 280 280 280 281 281 281 282 283 283 285 285 285 285 285 285 285 286 286 286 286 286 286 286 286 285 285 285 285
289 288 286 285 285 284 283 283 282 281 280 279 279 280 280 281 281 281 281 281 281 281 281 282 283 284 284 284 284 284 284 284 284 284 284 284 284 284 283 283 283 283 283 283
287 286 285 284 283 282 281 279 279 280 280 280 280 280 280 280 280 280 280 279 280 280 281 281 282 282 282 282 282 282 282 282 282 282 282 282 281 281 281 281 281 281 281 281
Wind_Speed
11 10 6 16 21 15 19 21 20 25 30 17 14 14 15 19 22 26 34 31 27 28 36 45 38 35 32 26 22 17 14 11 12 17 18 19 20 23 27 29 30 31 32 32
23 14 16 30 25 20 19 20 21 26 37 21 28 28 27 29 25 26 27 34 35 37 35 40 38 31 25 22 19 16 12 13 15 15 17 19 22 27 30 30 30 31 30 30
29 14 15 24 18 28 28 29 27 28 41 32 22 22 25 26 24 23 26 29 27 27 28 31 34 28 25 21 17 13 12 12 13 15 19 22 27 31 33 34 33 30 28 26
17 5 12 21 9 14 21 26 28 31 31 27 25 30 35 28 26 26 29 27 24 21 21 27 27 25 22 17 12 11 12 13 15 18 21 26 30 32 33 31 27 24 21 20
8 14 17 30 6 8 10 27 23 24 26 25 28 28 29 33 26 31 27 23 21 19 18 22 25 23 18 13 10 12 13 14 16 20 23 27 29 28 23 21 21 19 18 15
4 5 13 18 1 16 5 22 15 19 20 16 19 10 14 19 18 16 17 17 13 13 18 25 21 16 12 9 11 11 11 13 15 19 24 25 25 26 22 20 20 17 18 16
20 16 9 8 6 16 11 9 7 19 23 15 8 15 12 12 12 12 11 11 16 24 23 18 13 10 10 11 10 11 11 13 16 20 23 20 19 19 19 18 18 14 16 16
14 14 20 14 9 13 3 5 11 11 17 17 19 17 18 14 11 14 19 23 23 22 18 14 10 9 10 11 12 12 14 16 18 19 18 17 19 18 17 16 17 17 17 15
11 7 2 19 13 22 16 6 7 7 7 10 12 15 17 17 20 23 22 21 19 15 13 10 10 10 11 13 14 16 18 20 20 18 16 15 18 15 14 14 15 16 16 14
4 8 8 8 15 7 7 5 5 3 7 9 14 13 17 22 26 24 21 18 15 12 10 12 13 14 14 14 16 19 22 24 22 19 17 14 15 14 9 11 15 16 15 12
4 4 2 8 11 11 11 15 18 18 18 19 18 18 21 28 26 23 20 16 13 11 13 14 14 13 14 16 17 19 21 19 15 14 14 17 15 13 8 9 10 10 10 11
4 4 5 4 6 6 9 17 22 21 22 20 20 22 26 26 23 20 18 15 13 12 13 13 14 14 16 17 17 18 15 12 13 15 15 17 11 12 8 7 7 9 6 7
2 6 7 10 16 16 20 23 25 23 22 24 22 25 24 22 19 16 13 10 10 13 14 13 14 15 17 17 16 18 15 15 15 13 13 8 9 11 8 6 7 8 6 7
11 12 12 17 16 19 22 23 22 21 22 25 25 20 18 14 10 8 10 11 12 12 12 13 14 15 15 15 17 14 13 15 14 14 11 10 9 10 8 8 6 7 6 6
24 23 26 26 21 24 21 23 25 27 27 23 17 14 10 6 6 10 12 11 12 12 13 14 15 15 13 13 12 10 11 10 10 12 12 12 14 14 15 11 8 6 3 6
22 21 27 27 21 18 21 23 28 25 18 14 11 6 6 10 13 12 11 12 11 11 11 12 12 8 8 10 10 11 10 9 7 8 9 9 7 10 11 11 8 7 5 5
16 7 13 18 21 22 21 23 18 16 12 8 7 9 9 9 9 9 10 9 9 8 10 8 8 8 9 10 11 12 10 9 9 9 8 8 7 6 8 10 10 8 6 7
19 18 16 16 21 22 19 13 10 9 9 10 9 9 9 8 7 8 11 10 9 8 6 6 7 8 9 11 11 9 9 10 10 10 10 9 9 10 9 9 9 9 8 7
11 13 12 14 17 14 13 13 10 10 9 10 11 9 6 7 9 9 10 9 5 5 4 7 7 7 9 9 8 9 9 9 12 11 9 8 9 9 8 7 7 9 10 11
14 15 16 13 9 8 9 11 12 12 11 9 7 6 6 6 4 3 2 1 3 5 7 7 9 9 10 10 9 10 10 6 7 10 9 9 10 10 9 9 9 10 9 7
13 11 10 10 12 14 14 12 9 8 7 6 6 5 4 4 5 6 7 8 4 7 8 10 11 11 12 12 11 12 12 11 11 11 11 11 12 11 9 8 8 7 8 8
14 15 16 16 15 14 11 8 6 5 4 3 4 5 7 8 10 13 14 14 11 11 13 14 14 14 15 15 15 14 14 12 11 11 12 13 14 13 10 9 8 9 8 8
15 11 13 13 12 12 10 7 4 2 1 2 4 6 8 9 10 12 13 13 15 15 15 16 16 16 14 14 14 12 11 11 10 11 13 12 13 13 12 10 9 8 7 7
16 16 14 12 10 8 6 4 2 1 2 4 6 8 11 14 16 15 17 19 19 20 18 18 18 16 13 14 12 10 9 8 8 9 10 11 12 12 12 10 9 9 9 8
15 14 12 9 7 6 4 3 1 4 7 10 12 14 16 18 20 21 21 21 22 22 21 20 17 12 13 11 9 7 7 6 5 6 7 9 10 12 12 11 11 10 10 10
12 10 9 7 6 3 1 4 7 10 12 11 8 8 9 11 14 16 17 17 16 14 14 14 11 11 10 8 6 5 5 4 4 4 5 8 10 12 12 12 12 11 10 10
9 8 7 4 2 3 6 8 7 5 7 7 8 11 13 15 16 14 12 8 6 6 6 6 7 7 6 6 5 4 4 4 5 6 8 9 10 10 10 10 9 9 9 9
Wind_Direction
244 244 218 249 247 223 224 237 243 266 261 259 250 267 274 257 268 274 276 274 271 272 260 241 235 231 229 230 232 227 219 231 258 279 284 278 283 293 296 298 295 295 289 280
264 257 253 261 243 230 226 235 249 259 265 259 278 281 279 282 281 263 265 274 277 276 270 250 236 226 221 219 209 207 226 260 280 287 275 277 288 298 300 299 296 291 289 283
261 239 248 267 243 236 243 239 241 247 252 279 276 274 279 285 273 261 276 285 289 289 274 249 222 216 208 196 204 225 252 272 277 266 279 292 299 303 305 304 299 293 286 287
261 194 227 247 234 203 219 234 234 246 259 264 270 277 281 277 270 271 278 281 284 281 263 229 213 197 191 198 217 246 264 269 271 278 290 300 305 308 312 312 304 295 285 291
234 237 265 276 209 186 199 256 225 233 243 251 264 277 274 271 276 282 279 271 267 266 244 213 190 185 191 205 231 249 262 271 273 283 295 306 308 310 313 314 311 307 299 282
169 220 243 279 301 208 153 262 197 214 234 228 233 249 261 276 283 273 268 259 247 221 182 173 175 185 200 222 239 248 253 255 271 293 297 304 309 311 311 315 312 297 296 293
234 240 262 245 131 144 190 271 180 204 222 214 192 221 245 269 274 261 248 213 165 159 158 166 181 198 224 235 239 239 244 273 293 300 298 296 301 316 324 314 310 295 291 296
225 232 241 153 167 205 200 170 196 193 205 204 224 237 248 259 227 189 168 156 157 158 162 173 196 210 220 230 234 248 266 276 289 295 288 291 300 301 302 301 300 304 301 295
204 216 205 189 215 215 232 204 201 196 204 218 234 240 244 223 183 171 168 164 164 168 173 188 204 221 231 236 247 259 271 281 286 286 281 289 301 291 292 291 298 304 300 299
202 207 215 211 218 205 206 207 231 263 289 252 239 243 231 205 182 177 174 174 176 183 199 207 219 226 234 248 263 273 281 285 285 281 279 292 289 293 295 294 301 305 306 300
246 208 245 239 237 243 251 262 277 287 284 275 248 234 219 189 179 178 181 185 192 203 214 221 229 239 252 261 271 280 289 294 293 283 285 283 277 279 274 284 300 306 301 304
251 196 209 179 183 219 239 245 260 263 263 243 228 209 187 180 182 186 187 190 200 211 226 231 239 250 259 267 276 284 281 277 281 284 290 295 247 255 251 264 293 310 331 326
255 278 241 267 272 274 269 269 262 247 236 219 199 190 183 181 182 186 180 192 224 234 231 239 256 268 271 272 274 281 271 270 274 286 288 294 234 240 231 254 283 295 302 321
259 265 255 247 254 277 269 261 246 216 194 187 175 171 168 157 165 198 217 226 230 236 253 266 270 265 269 273 278 271 269 274 273 267 282 283 243 239 233 245 289 297 282 299
262 251 249 260 273 260 239 221 186 165 158 150 146 151 153 162 212 235 235 236 247 261 272 274 261 258 265 275 287 267 270 279 283 260 284 303 236 229 241 232 247 257 311 317
259 252 251 252 236 215 193 174 174 165 164 157 158 169 200 216 217 226 240 250 255 267 273 273 268 255 263 276 283 280 263 264 281 263 260 286 264 244 231 227 240 241 270 291
237 235 232 221 203 185 183 183 184 172 158 153 178 200 205 222 232 238 242 249 266 272 283 284 267 258 271 275 281 282 262 250 260 264 262 275 264 237 227 228 239 245 265 273
254 256 250 237 190 186 181 161 156 166 176 164 178 199 206 219 229 247 247 248 261 271 282 288 285 284 280 282 287 276 264 245 249 261 263 263 256 255 247 236 243 254 260 265
228 213 201 187 176 159 157 170 175 168 171 183 188 189 205 238 257 239 228 242 264 289 248 265 280 294 301 299 282 288 289 263 241 246 254 251 245 247 242 247 262 279 279 272
145 155 156 146 175 217 195 153 143 154 159 169 191 212 212 192 187 197 231 285 304 284 274 284 288 297 285 297 287 283 283 261 242 239 240 246 244 249 253 257 271 271 258 246
120 120 129 145 144 140 141 142 152 161 174 185 181 179 195 222 248 262 266 271 279 304 308 301 288 285 285 286 288 275 273 259 246 244 247 247 244 237 241 253 250 239 238 250
134 129 128 130 133 132 133 138 141 143 158 189 226 250 263 268 267 266 268 276 291 284 287 292 293 282 278 279 278 273 267 255 251 249 246 247 236 222 219 227 236 237 238 231
124 128 131 132 133 131 130 130 128 138 176 241 261 269 274 278 281 282 277 275 279 283 285 290 289 282 274 273 277 276 265 254 245 242 241 235 220 215 211 215 211 206 195 190
132 130 128 128 127 126 125 126 137 191 260 278 286 290 290 287 279 280 282 281 281 284 284 283 283 275 260 262 269 266 258 254 249 243 232 225 220 209 202 198 192 177 165 158
133 132 131 135 136 131 132 136 255 293 295 295 296 293 291 291 292 296 293 288 279 271 274 277 276 260 249 247 249 250 251 251 245 232 218 208 200 192 185 176 168 160 151 144
139 138 136 130 122 118 7 317 314 311 307 310 315 313 311 306 302 299 295 288 289 279 260 271 259 240 231 223 225 232 237 230 217 203 191 183 178 173 167 161 157 154 150 146
142 139 133 123 80 352 328 321 327 336 341 338 337 333 330 325 319 311 304 296 280 280 264 241 216 200 195 187 184 180 172 160 148 149 150 154 155 156 155 156 157 159 158 156